Sherman Airfield (FLV)
Ft Leavenworth, KS
Field Elevation: 772
Lat: 39°22.10N  Long: 94°54.89W
CTAF/Unicom Freq: 126.2000
   
    
Weather Advisories
7/25/2014 03:32 Z
Altimeter 30.00" Hg
Wind 160° @ 4 KT
Gusts --
Visibility 10 SM
Temperature 22° C (72° F)
Dewpoint 17° C (63° F)
Relative Humidity 70%
Density Altitude --
Condensation Altitude 3,500 feet
  Wind and Runways
Indicated Runway = 16
History
 
 
More Info
All DigiWx sites map
Weather Radar
NOAA Forecast
 
Airport IQ 5010
(K68) Garnett Municipal
(GRE) Greenville
 
about DigiWx
 
FAA Disclaimer: The data displayed is for advisory purposes only and is not to be used for flight planning or operations. For official data, please call (not available) to hear the current automated AWOS voice message.
  METAR FLV 250332Z AUTO 16004KT 10SM 22/17 A3000